CZ-3B DEB, 40839

Orbit data source: Space-Track

CZ-3B DEB, 40839 is space debris in HEO originally from a launch on Mon, 19 Dec 2011 UTC launched from the Xichang Space Center, China (XSC). Debris objects in space refer to the collection of defunct objects orbiting the Earth. Examples of debris include non-operational satellites, rocket bodies, and fragments generated from explosions, collisions, or faulty payload assembly.

Loading next visibility...
Identifier
40839, 2011-077U
Orbit
HEO
Country
Flag of CNCN / PRC
Related business
Manufacturer
CALT
Mission
Spacecraft
Bus & Motor
Unknown
Mass
Unknown
Launch date (UTC)
2011-12-19 (15 years ago)
Launch vehicle
Unknown
Launch site
Xichang Space Center, China (XSC)
Object type
Payload
Rocket body
Debris
Shape & HBR
Unknown shape, 0.2 m
Radar Cross Section
Medium (>0.1 m² and <1 m²)

Expand to show TLE details & history
Last TLE update: 7 months ago

TLE from 7 months ago
0 CZ-3B DEB
1 40839U 11077U   25311.78372765  .00002409  00000-0  50586-2 0  9998
2 40839  25.1100 244.8445 7445035 241.0248  27.2233  2.03323905 84395
Epoch: 2025-11-07T18:48Z
TLE epoch observation values (Epoch: 2025-11-07T18:48:34.068Z)
Latitude
0.00025°
Longitude
-84.49042°
Altitude
12,043.693 km
Speed
5.304 km/s
True Right ascension
16h 19m 29s
True Declination
0° 00' 01"
Sunlit
Object was in daylight at epoch
Visualization orbit readout
Latitude
Unknown
Longitude
Unknown
Altitude
Unknown
Speed
Unknown
Apparent Right ascension
Unknown
Apparent Declination
Unknown
Sunlit
N/A
Visualization observer readout
Local Sidereal Time
21:41:29
Azimuth
Unknown
Elevation
Unknown
Doppler factor
Unknown
Orbital elements
Apogee altitude
39,543.362 km
Perigee altitude
347.434 km
Semi-major axis
26,323.535 km
Eccentricity
0.7445
Inclination
25.11°
RAAN
244.8445°
Arg. of periapsis
241.0248°
True anomaly
119.24092°
Mean anomaly
27.2233°
Eccentric anomaly
66.27521°
Mean motion
0.50819 °/min
Orbital period
708.4 mins
BSTAR
0.0050586
Loading maneuver chart data...
Computing Atmospheric mass density...
Loading historical data...
Loading historical data...
Loading historical data...
Loading historical data...
Loading historical data...
Loading historical data...
Loading historical data...

Documentation

Showing up to 5 results
|